{"data":{"norad_id":60509,"epoch":"2026-09-19T04:25:44.067648Z","epoch_age_seconds":128319,"freshness":"FRESH","line1":"1 60509U 24149AT  26262.18453782  .00016952  00000+0  31477-3 0  9993","line2":"2 60509  97.3757 349.7987 0001547   8.2969 351.8307 15.49000154116945","mean_motion":15.49000154,"eccentricity":0.0001547,"inclination_deg":97.3757,"raan_deg":349.7987,"arg_perigee_deg":8.2969,"mean_anomaly_deg":351.8307,"bstar":0.00031477,"rev_number":11694,"period_min":92.963192823543,"perigee_km":418.59809495993,"apogee_km":420.7013301688,"semimajor_km":6797.7867125644,"source":"CELESTRAK","updated_at":"2026-09-20T09:00:34.714672Z"}}